TIME,DELAY(SENSOR),PRES,OXYGEN,RAWTEMP,T(OPTODE),TCPHASE,FLUOR,BETA(BETA700),BETA(BETA412),BETA(BETA440),CDOM,C(CSC),ED(ED412.20),ED(ED444.00),ED(ED489.60),ED(ED554.30),LU(LU412.10),LU(LU443.90),LU(LU489.70),LU(LU554.70),COMP,TILTX,TILTY,CHECK
1364270691,5808,871.5700073242188000,33.3852806091308600,562.1848144531250000,4.4181671142578125,56.5602607727050800,54,98,99,78,81,15506,0,0,0,0,2147124626,2147770980,2147570806,2147565156,168,3,13,18084
1364274287,5809,942.5300292968750000,39.5637893676757800,568.8294067382812000,4.2119312286376950,55.6660385131835940,55,97,100,79,80,15500,0,0,0,0,2147122816,2147775561,2147577444,2147567552,247,3,13,61872
1364277887,5810,939.8300170898438000,40.1267814636230500,571.2700195312500000,4.1360869407653810,55.6121482849121100,54,99,100,77,82,15499,0,0,0,0,2147128301,2147770450,2147573595,2147570925,3002,2,13,43959
1364281487,5810,968.5700073242188000,41.8444709777832000,574.2232055664062000,4.0442471504211430,55.3920211791992200,54,99,100,78,81,15498,0,0,0,0,2147125248,2147777051,2147570724,2147568283,636,3,13,64224
1364285087,5809,973.2899780273438000,42.5822296142578100,574.7349243164062000,4.0283279418945310,55.2898902893066400,55,101,100,78,81,15496,0,0,0,0,2147123209,2147770038,2147571547,2147564708,3498,2,13,14066
1364288687,5809,982.9899902343750000,42.0252685546875000,574.5452880859375000,4.0342249870300290,55.3664588928222660,55,98,99,78,81,15493,0,0,0,0,2147122614,2147773321,2147575451,2147565449,105,2,13,9976
1364292287,5806,986.3699951171875000,41.4104499816894500,574.3494873046875000,4.0403161048889160,55.4505805969238300,54,98,99,79,82,15492,0,0,0,0,2147124653,2147776118,2147571840,2147568621,246,2,13,7704
1364295887,5809,991.7000122070312000,40.9794807434082000,573.8068237304688000,4.0572009086608890,55.5131607055664060,55,97,100,80,82,15493,0,0,0,0,2147123062,2147774884,2147573156,2147568274,3301,2,13,1772
1364299487,5810,995.2600097656250000,40.2818489074707000,573.7755737304688000,4.0581722259521480,55.6106910705566400,55,98,100,78,81,15492,0,0,0,0,2147123629,2147772169,2147572882,2147567862,3480,2,13,4052
1364303087,5807,996.9600219726562000,39.8232383728027340,573.1043701171875000,4.0790500640869140,55.6738204956054700,55,98,100,78,84,15496,0,0,0,0,2147126025,2147775213,2147574701,2147569225,198,2,13,62796
1364306687,5809,995.9199829101562000,39.2921791076660160,573.0347290039062000,4.0812149047851560,55.7566719055175800,55,104,99,79,82,15495,0,0,0,0,2147123163,2147769517,2147575908,2147568438,4,2,13,13588
1364310287,5812,999.8599853515625000,40.0629386901855500,573.6364135742188000,4.0625038146972660,55.6476402282714840,54,99,100,78,82,15490,0,0,0,0,2147122267,2147771602,2147574646,2147563876,69,2,13,42691
1364313887,5809,996.6599731445312000,39.6863708496093750,573.1784057617188000,4.0767478942871090,55.6936988830566400,55,97,101,78,82,15491,0,0,0,0,2147123638,2147772379,2147574528,2147569947,184,2,13,60694
1364317487,5807,991.8099975585938000,39.8352317810058600,573.8225708007812000,4.0567088127136230,55.6819801330566400,55,98,99,77,82,15493,0,0,0,0,2147122532,2147769298,2147574363,2147565632,3568,2,13,4780
1364321087,5810,989.0100097656250000,41.2691192626953100,574.7849731445312000,4.0267658233642580,55.4773597717285160,55,97,100,80,82,15492,0,0,0,0,2147123949,2147770459,2147574125,2147565705,2136,2,13,57180
1364324687,5810,994.0599975585938000,40.8272209167480500,574.1862182617188000,4.0453991889953610,55.5403900146484400,55,98,101,79,82,15491,0,0,0,0,2147122706,2147770148,2147574180,2147566080,29,2,13,57564
1364328287,5811,995.2700195312500000,40.4121513366699200,574.1090087890625000,4.0478000640869140,55.5969886779785160,56,98,99,78,81,15489,0,0,0,0,2147127021,2147773906,2147576164,2147568237,3477,2,13,28516
1364331887,5810,1003.2800292968750000,39.8819999694824200,573.9686279296875000,4.0521697998046875,55.6769714355468750,54,98,100,77,82,15490,0,0,0,0,2147125988,2147772196,2147573933,2147568512,425,2,13,41937
1364335487,5808,1000.5000000000000000,40.1715202331543000,574.3062133789062000,4.0416641235351560,55.6387100219726560,54,98,100,79,82,15488,0,0,0,0,2147122194,2147768301,2147571529,2147566966,107,2,13,52931
1364339087,5810,999.5800170898438000,40.8331413269043000,574.5955200195312000,4.0326628684997560,55.5393905639648440,55,98,100,78,82,15491,0,0,0,0,2147120256,2147774089,2147571940,2147570048,3000,2,13,51025
1364342687,5809,997.3300170898438000,39.8507804870605500,574.2145996093750000,4.0445141792297360,55.6868782043457000,55,104,100,78,83,15491,0,0,0,0,2147122642,2147769453,2147572918,2147567332,265,2,13,56678
1364346287,5809,1000.9000244140625000,40.6560401916503900,574.6856079101562000,4.0298600196838380,55.5669517517089840,54,97,100,79,82,15488,0,0,0,0,2147124763,2147769398,2147576201,2147566464,3574,2,13,46241
1364349887,5809,1003.6199951171875000,40.4778785705566400,574.4058227539062000,4.0385651588439940,55.5905799865722660,56,98,100,77,82,15491,0,0,0,0,2147125723,2147771254,2147572653,2147564717,639,2,13,43683
1364353487,5810,999.1699829101562000,40.5223197937011700,574.2415771484375000,4.0436730384826660,55.5861206054687500,54,97,100,77,81,15486,0,0,0,0,2147124891,2147774537,2147573750,2147565897,405,2,13,47440
1364357087,5812,993.9299926757812000,41.0149002075195300,574.6165771484375000,4.0320072174072270,55.5146713256835940,55,101,99,78,83,15488,0,0,0,0,2147122843,2147771885,2147568356,2147568960,53,2,13,18392
1364360687,5810,998.1699829101562000,41.6398010253906250,574.4061889648438000,4.0385532379150390,55.4192314147949200,55,96,98,78,82,15488,0,0,0,0,2147127753,2147771309,2147574107,2147570532,3089,2,13,38202
1364364287,5809,996.2000122070312000,40.9010581970214840,574.5828857421875000,4.0330538749694820,55.5333213806152340,55,97,99,77,81,15484,0,0,0,0,2147123776,2147771273,2147569600,2147570944,3378,2,13,29841
1364367887,5810,997.5900268554688000,41.2541313171386700,574.4782104492188000,4.0363140106201170,55.4782791137695300,55,97,100,77,81,15488,0,0,0,0,2147124406,2147771995,2147573184,2147567506,3360,2,13,12906
1364371487,5807,997.9699707031250000,42.2589187622070300,574.6599121093750000,4.0306591987609860,55.3310813903808600,55,97,99,79,82,15487,0,0,0,0,2147127140,2147769389,2147571190,2147569718,538,2,13,26286
1364375087,5810,1001.7299804687500000,41.5051498413085940,574.2556762695312000,4.0432338714599610,55.4379005432128900,55,99,100,79,82,15486,0,0,0,0,2147123757,2147770898,2147573193,2147569453,3053,2,13,18717
1364378687,5808,1006.5000000000000000,41.2681083679199200,573.8729858398438000,4.0551400184631350,55.4700813293457000,55,96,100,78,81,15486,0,0,0,0,2147126390,2147773156,2147570413,2147566802,2960,2,13,39772
1364382287,5808,1013.3900146484375000,39.6912612915039060,573.6381835937500000,4.0624470710754395,55.7018089294433600,55,98,101,78,81,15481,0,0,0,0,2147128045,2147772909,2147567259,2147565339,400,2,13,30221
1364385887,5808,996.6400146484375000,40.2680511474609400,574.0618896484375000,4.0492649078369140,55.6221694946289060,55,99,101,78,82,15484,0,0,0,0,2147125732,2147766390,2147568502,2147568182,252,2,13,27997
1364389487,5811,998.1099853515625000,40.7287216186523440,574.5850830078125000,4.0329880714416500,55.5546684265136700,54,98,101,78,81,15486,0,0,0,0,2147125714,2147774454,2147573092,2147566848,21,2,13,63529
1364393087,5810,994.4000244140625000,40.8002281188964840,574.6143798828125000,4.0320758819580080,55.5446510314941400,56,98,100,78,82,15482,0,0,0,0,2147125229,2147775268,2147570029,2147569298,208,2,13,28588
1364396687,5810,994.6500244140625000,42.5867004394531250,575.0073242187500000,4.0198478698730470,55.2854995727539060,54,97,100,77,81,15482,0,0,0,0,2147126482,2147768228,2147573412,2147566848,31,2,13,65378
1364400287,5810,994.5399780273438000,42.5710105895996100,574.9141845703125000,4.0227470397949220,55.2873497009277340,53,98,100,78,82,15485,0,0,0,0,2147124964,2147770468,2147569051,2147569947,3389,2,13,54482
1364403887,5809,996.1300048828125000,43.0292701721191400,575.2891235351562000,4.0110821723937990,55.2295913696289060,55,99,100,78,81,15484,0,0,0,0,2147127707,2147771748,2147574308,2147569499,115,2,13,58543
1364407487,5813,994.6400146484375000,43.0498199462890600,575.1264038085938000,4.0161437988281250,55.2223396301269500,56,99,100,78,82,15481,0,0,0,0,2147126546,2147772882,2147569563,2147570752,149,2,13,32483
1364411087,5811,995.0200195312500000,43.2866401672363300,575.7227172851562000,3.9975869655609130,55.1971397399902340,55,97,99,77,82,15485,0,0,0,0,2147125156,2147776192,2147572818,2147568576,3382,2,13,56397
1364414687,5809,995.4400024414062000,42.9025001525878900,574.8817749023438000,4.0237541198730470,55.2398300170898440,55,98,100,78,81,15482,0,0,0,0,2147124388,2147772699,2147570194,2147567552,103,2,13,1688
1364415956,5811,999.0900268554688000,42.6687202453613300,574.9036865234375000,4.0230708122253420,55.2772598266601560,55,97,99,77,82,15479,0,0,0,0,2147127680,2147770166,2147572516,2147569389,92,2,13,29944
